[[{"header":{"parameterUnit":"m.s-1","parameterCategory":2,"la1":30.2991,"la2":30.254,"lo1":-89.0895,"lo2":-89.0444,"dy":0.0017,"dx":0.0017,"nx":28,"ny":28,"refTime":"2025-12-25T09:00:00:Z","depth":"0","parameterNumber":2,"parameterNumberName":"U-component_of_CURRENTS"},"data":[0,0,0,0,0,0,0,0,0,0,0,0,0,0,0,0,0,0,0,0,0,0,0,0,0,0,0,0,0,0,0,0,0,0,0,0,0,0,0,0,0,0,0,0,0,0,0,0,0,0,0,0,0,0,0,0,0,0,0.2792,0.2793,0,0.2872,0.2873,0.2874,0.2944,0.2945,0.2946,0.2946,0.2979,0.2979,0.2979,0,0,0,0,0,0,0,0,0,0,0,0,0,0.2697,0.2698,0.2792,0.2793,0.2794,0.2872,0.2873,0.2874,0.2944,0.2945,0.2946,0.2947,0.2979,0.2979,0.2979,0,0,0,0,0,0,0,0,0,0,0,0,0,0.2752,0.2699,0.2792,0.2839,0.2844,0.2872,0.2873,0.2874,0.2943,0.2945,0.2946,0.2947,0.2979,0.2979,0.2979,0.2951,0,0,0.2979,0.2979,0,0,0,0,0,0,0,0,0.2749,0.2756,0.2831,0.2836,0.2842,0.2901,0.2852,0.2898,0.2943,0.2904,0.2946,0.2948,0.2948,0.2951,0.2962,0.2953,0.2954,0.2979,0.2979,0.2979,0.2979,0,0,0,0,0,0,0,0.2745,0.2753,0.2822,0.2832,0.2839,0.2856,0.2865,0.2861,0.2915,0.2908,0.2913,0.2924,0.2951,0.2961,0.2963,0.2955,0.2979,0.2979,0.2979,0.2979,0.2955,0.2954,0,0,0,0,0,0,0.2737,0.2749,0.282,0.2825,0.28,0.2857,0.2867,0.2879,0.2917,0.2925,0.2923,0.2927,0.2961,0.2963,0.2964,0.2955,0.2979,0.2979,0.2979,0.2955,0.2955,0.2954,0,0,0,0,0,0,0.2735,0.2742,0.2817,0.279,0.2801,0.2857,0.287,0.288,0.2898,0.2929,0.2936,0.2932,0.2962,0.2964,0.2969,0.2956,0.2979,0.2979,0.2956,0.2955,0.2954,0.2922,0,0,0,0,0,0,0.2731,0.2741,0.274,0.2789,0.2802,0.2834,0.2869,0.2881,0.2903,0.2909,0.2938,0.2943,0.2963,0.2968,0.2969,0.2956,0.2979,0.2957,0.2956,0.2955,0.2924,0.292,0.2916,0,0,0,0,0,0.2728,0.2733,0.2739,0.2748,0.2801,0.2834,0.2842,0.2886,0.2902,0.2907,0.2929,0.2942,0.2961,0.2968,0.2968,0.2955,0.2958,0.2956,0.2955,0.2925,0.292,0.2916,0,0,0,0,0,0,0.2695,0.2742,0.275,0.277,0.2795,0.2847,0.2857,0.2879,0.2901,0.2908,0.2933,0.2939,0.2937,0.2947,0.2954,0.2945,0.2961,0.2959,0.2938,0.2934,0.293,0.2942,0.2979,0,0,0,0,0,0.2683,0.2696,0.2739,0.2749,0.2763,0.2803,0.2819,0.2849,0.2878,0.2891,0.2907,0.2922,0.2928,0.2933,0.2939,0.293,0.296,0.2922,0.2919,0.2915,0.2925,0.2955,0.2955,0.2949,0.2949,0.2949,0,0,0.2671,0.2698,0.2704,0.2741,0.2765,0.2781,0.2817,0.2845,0.2854,0.2886,0.2894,0.2906,0.2922,0.292,0.2919,0.293,0.2932,0.2914,0.2911,0.2922,0.2953,0.2954,0.2955,0.2948,0.2948,0.2948,0,0,0.2653,0.2677,0.2679,0.27,0.2736,0.2765,0.2769,0.2813,0.2831,0.2841,0.2863,0.2871,0.2879,0.2892,0.2899,0.2875,0.2909,0.287,0.2864,0.2892,0.2893,0.2895,0.2933,0.2938,0.2871,0.2871,0.2871,0,0.263,0.2641,0.2683,0.269,0.2701,0.2753,0.2754,0.2781,0.2817,0.2825,0.2841,0.2861,0.2869,0.2872,0.287,0.2867,0.2896,0.2879,0.2889,0.2891,0.2893,0.2932,0.2938,0.2869,0.2869,0.287,0.287,0,0.2623,0.262,0.2625,0.2647,0.2667,0.2678,0.2722,0.2739,0.2765,0.2791,0.2803,0.2824,0.284,0.2836,0.285,0.2858,0.2878,0.2879,0.2903,0.2892,0.2933,0.294,0.2867,0.2867,0.2868,0.2868,0,0,0.2594,0.2611,0.2611,0.2597,0.2643,0.2657,0.2678,0.2707,0.272,0.2755,0.2768,0.2782,0.2805,0.2814,0.2826,0.2853,0.2887,0.2874,0.2877,0.2918,0.2964,0.2922,0.2926,0.2894,0.2895,0.2896,0.2988,0,0.2564,0.2546,0.258,0.256,0.2546,0.2602,0.2617,0.2655,0.2691,0.2718,0.2757,0.2775,0.2793,0.2802,0.2831,0.2873,0.2905,0.2863,0.2965,0.2968,0.2935,0.2931,0.2855,0.2926,0.2995,0.2996,0.2997,0,0.2545,0.2525,0.2496,0.2493,0.2499,0.2508,0.2543,0.2568,0.2631,0.2663,0.2703,0.2744,0.2788,0.2804,0.2891,0.2867,0.2915,0.2953,0.2957,0.2937,0.2938,0.2947,0.2936,0.2801,0.3008,0.3007,0.3006,0,0.2488,0.2471,0.2437,0.2437,0.2453,0.2457,0.2481,0.254,0.2564,0.263,0.2656,0.2724,0.2753,0.2832,0.2909,0.291,0.3008,0.3017,0.3028,0.3026,0.2991,0.2984,0.2865,0.3081,0.308,0.308,0.308,0,0.2445,0.2408,0.24,0.2381,0.2351,0.2394,0.2401,0.2442,0.2505,0.2529,0.2617,0.2646,0.2762,0.2831,0.2912,0.2987,0.3012,0.3033,0.3044,0.2975,0.2966,0.287,0.2805,0.3084,0.3083,0.3082,0.3082,0,0.2382,0.2379,0.233,0.2324,0.232,0.2302,0.2345,0.236,0.2428,0.2463,0.2487,0.2594,0.269,0.28,0.2925,0.2971,0.2977,0.3076,0.299,0.2988,0.2865,0.2802,0.2697,0.2669,0.3118,0.3117,0.3117,0,0.2337,0.2309,0.2283,0.2255,0.2246,0.2234,0.224,0.2309,0.2333,0.2425,0.2437,0.2539,0.2612,0.278,0.2894,0.3031,0.2937,0.3009,0.2988,0.2841,0.2781,0.2699,0.2679,0.294,0.2938,0.2937,0.2936,0,0.2248,0.2256,0.2232,0.218,0.216,0.2148,0.2158,0.217,0.2258,0.2296,0.2362,0.2431,0.2596,0.269,0.2843,0.2928,0.285,0.298,0.285,0.2644,0.2527,0.2511,0.2903,0.2922,0.2923,0.2924,0.2925,0.2926,0.218,0.2167,0.2155,0.2102,0.2074,0.2056,0.2046,0.208,0.2113,0.2162,0.2264,0.2334,0.2467,0.2688,0.2749,0.2744,0.2771,0.2692,0.2639,0.2579,0.2494,0.2851,0.2857,0.2858,0.2859,0.286,0.286,0,0.2097,0.2105,0.2071,0.2021,0.1965,0.198,0.1986,0.198,0.1991,0.2059,0.2121,0.2211,0.2299,0.2406,0.2463,0.2395,0.2397,0.2319,0.2175,0.219,0.2527,0.2457,0.2347,0.2347,0.2347,0.2347,0.2348,0.2348,0.204,0.2018,0.2026,0.1917,0.188,0.1825,0.182,0.1821,0.1858,0.1862,0.1889,0.1951,0.202,0.2025,0.1982,0.1992,0.1882,0.1817,0.1825,0.2017,0.2047,0.2075,0.1992,0.1786,0.1785,0.1473,0.147,0.1468]},{"header":{"parameterUnit":"m.s-1","parameterCategory":2,"la1":30.2991,"la2":30.254,"lo1":-89.0895,"lo2":-89.0444,"dy":0.0017,"dx":0.0017,"nx":28,"ny":28,"refTime":"2025-12-25T09:00:00:Z","depth":"0","parameterNumber":3,"parameterNumberName":"V-component_of_CURRENTS"},"data":[0,0,0,0,0,0,0,0,0,0,0,0,0,0,0,0,0,0,0,0,0,0,0,0,0,0,0,0,0,0,0,0,0,0,0,0,0,0,0,0,0,0,0,0,0,0,0,0,0,0,0,0,0,0,0,0,0,0,-0.0012,-0.0012,0,-0.0024,-0.0024,-0.0024,-0.0045,-0.0046,-0.0046,-0.0047,-0.0074,-0.0074,-0.0075,0,0,0,0,0,0,0,0,0,0,0,0,0,0.0055,0.0054,-0.0012,-0.0012,-0.0012,-0.0024,-0.0024,-0.0024,-0.0045,-0.0046,-0.0046,-0.0047,-0.0074,-0.0074,-0.0075,0,0,0,0,0,0,0,0,0,0,0,0,0,0.0034,0.0053,-0.0012,-0.0026,-0.0027,-0.0024,-0.0024,-0.0024,-0.0045,-0.0046,-0.0047,-0.0047,-0.0074,-0.0074,-0.0075,-0.006,0,0,-0.0076,-0.0076,0,0,0,0,0,0,0,0,0.0036,0.0032,-0.0023,-0.0025,-0.0026,-0.0035,-0.001,-0.0037,-0.0045,-0.0037,-0.0047,-0.0048,-0.0063,-0.0064,-0.0062,-0.0061,-0.0062,-0.0076,-0.0076,-0.0076,-0.0076,0,0,0,0,0,0,0,0.0037,0.0033,-0.0015,-0.0024,-0.0025,-0.001,-0.0014,-0.0015,-0.0044,-0.0037,-0.0039,-0.0043,-0.0064,-0.0062,-0.0063,-0.0063,-0.0076,-0.0076,-0.0076,-0.0076,-0.0087,-0.0087,0,0,0,0,0,0,0.0033,0.0034,-0.0015,-0.0015,0.0001,-0.0011,-0.0015,-0.003,-0.0044,-0.0047,-0.0042,-0.0044,-0.0061,-0.0063,-0.0064,-0.0054,-0.0076,-0.0076,-0.0076,-0.0087,-0.0087,-0.0087,0,0,0,0,0,0,0.0034,0.0028,-0.0014,0.0009,0.0004,-0.0012,-0.0028,-0.003,-0.0029,-0.0047,-0.0051,-0.0039,-0.0062,-0.0064,-0.0066,-0.0056,-0.0076,-0.0077,-0.0087,-0.0087,-0.0087,-0.0031,0,0,0,0,0,0,0.0036,0.0028,0.0022,0.0008,0.0002,-0.0009,-0.0027,-0.003,-0.003,-0.0033,-0.0046,-0.0049,-0.0062,-0.0065,-0.0066,-0.0056,-0.0077,-0.0087,-0.0087,-0.0087,-0.0033,-0.0029,-0.0026,0,0,0,0,0,0.0038,0.0031,0.0021,0.0016,-0.0008,-0.0008,-0.0009,-0.0021,-0.0029,-0.0024,-0.0036,-0.0049,-0.0068,-0.0065,-0.0066,-0.0056,-0.0087,-0.0087,-0.0087,-0.0034,-0.003,-0.0026,0,0,0,0,0,0,0.0053,0.0027,0.0017,0.0,-0.0002,-0.0013,-0.001,-0.0016,-0.002,-0.0024,-0.0041,-0.0045,-0.0044,-0.0061,-0.0057,-0.0064,-0.0082,-0.0083,-0.0042,-0.0038,-0.0035,-0.0033,-0.0077,0,0,0,0,0,0.0054,0.0042,0.0026,0.0014,0.0013,0.0004,0.0004,-0.0004,-0.0011,-0.0014,-0.002,-0.0036,-0.0045,-0.005,-0.0059,-0.0055,-0.0064,-0.0055,-0.0051,-0.0048,-0.005,-0.0048,-0.0044,-0.0088,-0.0088,-0.0088,0,0,0.0053,0.0041,0.0031,0.0018,0.0013,0.0018,0.0002,0.0003,0.0007,-0.0016,-0.0008,-0.0018,-0.0041,-0.004,-0.0042,-0.0053,-0.004,-0.0049,-0.0046,-0.0049,-0.0047,-0.0043,-0.0039,-0.0088,-0.0088,-0.0088,0,0,0.0056,0.0039,0.0034,0.0037,0.0033,0.0031,0.0033,0.0029,0.0026,0.0034,0.0014,0.001,0.0001,-0.0012,-0.0022,-0.0007,-0.002,-0.0014,0.0005,0.0008,0.0012,0.0015,0.0018,0.0021,-0.0015,-0.0015,-0.0015,0,0.0053,0.0046,0.0036,0.0042,0.0046,0.0038,0.0045,0.0047,0.0044,0.0046,0.0039,0.003,0.0014,0.0011,0.001,0.0003,0.0,-0.0003,0.0015,0.0018,0.002,0.0021,0.0024,-0.0012,-0.0013,-0.0013,-0.0013,0,0.0059,0.0058,0.006,0.0061,0.0068,0.0074,0.0074,0.0083,0.0083,0.0082,0.0087,0.0071,0.0062,0.0057,0.0038,0.0045,0.0036,0.0024,0.0011,0.0029,0.0028,0.003,-0.0009,-0.001,-0.001,-0.0011,0,0,0.0032,0.0056,0.0056,0.0067,0.0079,0.0085,0.0099,0.0108,0.0118,0.012,0.0133,0.0117,0.0111,0.0098,0.0079,0.0077,0.0096,0.0058,0.0057,0.0071,0.0105,0.0101,0.0102,0.0092,0.0092,0.0092,0.0101,0,0.0036,0.0055,0.0067,0.0089,0.0099,0.0109,0.0125,0.0135,0.0143,0.0158,0.0145,0.0149,0.0125,0.0124,0.012,0.0102,0.0102,0.0094,0.0075,0.0074,0.0078,0.0105,0.0132,0.0141,0.0102,0.0103,0.0103,0,0.0037,0.005,0.007,0.0105,0.011,0.0126,0.0153,0.0167,0.0184,0.019,0.0195,0.0189,0.0186,0.0164,0.0151,0.0149,0.0128,0.0114,0.0114,0.009,0.0074,0.0114,0.0146,0.0114,0.0106,0.0106,0.0105,0,0.0027,0.0056,0.0073,0.0084,0.0117,0.0132,0.0152,0.0175,0.0193,0.021,0.0227,0.0224,0.0227,0.0207,0.0182,0.0166,0.0173,0.0148,0.0126,0.0125,0.0132,0.0132,0.0139,0.0139,0.0139,0.0139,0.0139,0,0.0028,0.0044,0.0071,0.0081,0.0107,0.0132,0.0166,0.0182,0.0213,0.0243,0.0241,0.0265,0.0239,0.0241,0.0205,0.0182,0.0194,0.0135,0.013,0.0152,0.0153,0.011,0.0068,0.0139,0.0139,0.0139,0.0139,0,0.0022,0.0038,0.0058,0.009,0.0104,0.0121,0.0177,0.0205,0.0229,0.0269,0.0277,0.0301,0.0311,0.0288,0.0264,0.0217,0.0166,0.0177,0.0205,0.0203,0.0133,0.0092,0.0044,0.0028,0.0146,0.0146,0.0146,0,0.0024,0.0032,0.006,0.0075,0.0092,0.0129,0.0162,0.0202,0.0235,0.0295,0.0315,0.0344,0.038,0.0353,0.0291,0.0244,0.0186,0.0209,0.0176,0.014,0.0091,0.0043,0.0029,0.0211,0.0211,0.0212,0.0212,0,0.0023,0.0029,0.0045,0.0075,0.0105,0.015,0.0198,0.0229,0.0283,0.0332,0.0399,0.0439,0.0425,0.042,0.0351,0.0294,0.0176,0.0214,0.0177,0.0141,0.009,0.0069,0.019,0.0216,0.0216,0.0215,0.0215,0.0215,0.002,0.0031,0.0052,0.0081,0.0117,0.0172,0.0223,0.0284,0.0356,0.0458,0.0475,0.0583,0.0547,0.047,0.0372,0.023,0.0191,0.0187,0.0142,0.0097,0.0077,0.0202,0.0218,0.0218,0.0218,0.0218,0.0217,0,0.0024,0.0043,0.0067,0.0108,0.0152,0.0174,0.0253,0.0319,0.042,0.054,0.063,0.0724,0.0649,0.0535,0.0334,0.02,0.0131,0.0131,0.0081,0.0072,0.0197,0.0197,0.0211,0.0211,0.0211,0.0212,0.0212,0.0212,0.0031,0.0052,0.0067,0.013,0.0169,0.025,0.0304,0.0403,0.051,0.0698,0.0826,0.0914,0.0863,0.0471,0.0211,0.0135,0.0033,0.0003,-0.0051,0.0051,0.0053,0.0055,0.0048,0.003,0.003,-0.0142,-0.0144,-0.0145]}],[{"header":{"parameterUnit":"m.s-1","parameterCategory":2,"la1":30.2991,"la2":30.254,"lo1":-89.0895,"lo2":-89.0444,"dy":0.0017,"dx":0.0017,"nx":28,"ny":28,"refTime":"2025-12-25T09:00:00:Z","depth":"2","parameterNumber":2,"parameterNumberName":"U-component_of_CURRENTS"},"data":[0,0,0,0,0,0,0,0,0,0,0,0,0,0,0,0,0,0,0,0,0,0,0,0,0,0,0,0,0,0,0,0,0,0,0,0,0,0,0,0,0,0,0,0,0,0,0,0,0,0,0,0,0,0,0,0,0,0,-0.0367,-0.0368,0,-0.041,-0.041,-0.0411,-0.036,-0.0359,-0.0357,-0.0355,-0.0272,-0.0271,-0.0271,0,0,0,0,0,0,0,0,0,0,0,0,0,-0.0253,-0.0255,-0.0367,-0.0368,-0.0369,-0.041,-0.041,-0.0411,-0.0361,-0.0358,-0.0356,-0.0354,-0.0272,-0.0271,-0.0271,0,0,0,0,0,0,0,0,0,0,0,0,0,-0.0298,-0.0255,-0.0367,-0.035,-0.0349,-0.041,-0.041,-0.0411,-0.0361,-0.0358,-0.0356,-0.0354,-0.0272,-0.0272,-0.0271,-0.0316,0,0,-0.0268,-0.0267,0,0,0,0,0,0,0,0,-0.0295,-0.0302,-0.0352,-0.0351,-0.035,-0.0379,-0.0339,-0.0373,-0.0362,-0.0354,-0.0355,-0.0352,-0.0299,-0.0296,-0.0309,-0.0312,-0.0308,-0.0268,-0.0267,-0.0267,-0.0266,0,0,0,0,0,0,0,-0.0292,-0.03,-0.0382,-0.0353,-0.0352,-0.0344,-0.0347,-0.0346,-0.0337,-0.0355,-0.0352,-0.0361,-0.0297,-0.031,-0.0306,-0.0307,-0.0268,-0.0267,-0.0266,-0.0266,-0.0228,-0.0228,0,0,0,0,0,0,-0.0294,-0.0297,-0.0381,-0.0383,-0.0318,-0.0348,-0.0352,-0.0371,-0.0339,-0.0334,-0.0363,-0.0358,-0.0313,-0.0307,-0.0303,-0.0224,-0.0267,-0.0266,-0.0265,-0.0228,-0.0228,-0.0227,0,0,0,0,0,0,-0.0291,-0.0301,-0.0379,-0.0342,-0.0351,-0.0353,-0.0375,-0.0373,-0.0347,-0.0347,-0.0338,-0.0334,-0.0311,-0.0304,-0.0259,-0.0224,-0.0265,-0.0264,-0.0229,-0.0228,-0.0228,-0.0149,0,0,0,0,0,0,-0.0288,-0.03,-0.0301,-0.0343,-0.0353,-0.0382,-0.0377,-0.0376,-0.036,-0.0353,-0.0321,-0.0313,-0.0308,-0.0261,-0.0258,-0.0224,-0.0264,-0.0229,-0.0229,-0.0228,-0.0152,-0.0145,-0.014,0,0,0,0,0,-0.0284,-0.0295,-0.0301,-0.031,-0.0359,-0.0382,-0.0386,-0.0377,-0.0361,-0.0345,-0.0316,-0.0312,-0.0254,-0.0259,-0.0257,-0.0221,-0.023,-0.0229,-0.0228,-0.0155,-0.0147,-0.014,0,0,0,0,0,0,-0.0231,-0.0294,-0.0299,-0.0324,-0.0337,-0.0373,-0.0361,-0.0363,-0.0335,-0.0308,-0.0304,-0.0294,-0.0241,-0.0253,-0.026,-0.0212,-0.0243,-0.0241,-0.0188,-0.0181,-0.0175,-0.0153,-0.0263,0,0,0,0,0,-0.0229,-0.0257,-0.0299,-0.0311,-0.0315,-0.0334,-0.0337,-0.0329,-0.0323,-0.0307,-0.0276,-0.0256,-0.0248,-0.0227,-0.0215,-0.0192,-0.0183,-0.0171,-0.0165,-0.016,-0.0143,-0.0109,-0.0098,-0.0224,-0.0224,-0.0224,0,0,-0.0218,-0.0248,-0.0266,-0.0302,-0.0309,-0.0315,-0.0326,-0.0315,-0.0301,-0.0303,-0.0239,-0.0224,-0.0237,-0.0199,-0.0179,-0.0195,-0.0119,-0.0159,-0.0154,-0.0139,-0.0107,-0.0094,-0.0083,-0.0223,-0.0224,-0.0224,0,0,-0.0204,-0.0226,-0.0241,-0.0248,-0.0255,-0.0274,-0.0263,-0.0264,-0.0238,-0.0193,-0.0195,-0.016,-0.0126,-0.0135,-0.0141,-0.0104,-0.0086,-0.0094,-0.0041,-0.0009,0.0003,0.0013,0.0051,0.0064,-0.0093,-0.0092,-0.0092,0,-0.0181,-0.0205,-0.0241,-0.024,-0.0236,-0.0251,-0.0239,-0.0237,-0.021,-0.0179,-0.0147,-0.0097,-0.0101,-0.0094,-0.0072,-0.0087,-0.0054,-0.0064,0.0002,0.0012,0.0022,0.0058,0.0071,-0.0088,-0.0089,-0.0089,-0.009,0,-0.019,-0.018,-0.0178,-0.0194,-0.0195,-0.018,-0.0189,-0.0154,-0.0112,-0.0097,-0.0027,-0.0022,0.0013,0.0006,-0.0013,0.0034,0.0042,0.0011,-0.0008,0.004,0.0074,0.0087,-0.0083,-0.0084,-0.0085,-0.0086,0,0,-0.0201,-0.019,-0.018,-0.0158,-0.0158,-0.016,-0.0131,-0.0112,-0.0072,-0.0011,0.0053,0.0068,0.0105,0.0098,0.0078,0.0101,0.0189,0.0103,0.0102,0.0155,0.0293,0.0281,0.0293,0.0191,0.0193,0.0195,0.0296,0,-0.0181,-0.0161,-0.0166,-0.0124,-0.0107,-0.0099,-0.0073,-0.0048,-0.0002,0.0063,0.0082,0.0139,0.0123,0.0164,0.0187,0.0186,0.0226,0.0166,0.0226,0.0228,0.0224,0.0308,0.0246,0.033,0.0308,0.031,0.0311,0,-0.0176,-0.0163,-0.0118,-0.0066,-0.0058,-0.0026,0.0028,0.0045,0.0102,0.0152,0.0216,0.0241,0.0283,0.0268,0.0327,0.0305,0.0324,0.032,0.0323,0.0295,0.024,0.0274,0.0353,0.0332,0.033,0.0329,0.0328,0,-0.0159,-0.0115,-0.0071,-0.0058,-0.0022,0.0032,0.0058,0.0106,0.0142,0.0223,0.0288,0.0335,0.0396,0.0418,0.0443,0.0406,0.0517,0.0446,0.045,0.0449,0.0397,0.0387,0.0508,0.0508,0.0508,0.0508,0.0507,0,-0.0134,-0.0089,-0.0039,-0.0015,0.0062,0.0078,0.0167,0.0198,0.026,0.0324,0.0354,0.0429,0.045,0.0512,0.05,0.0542,0.0572,0.0494,0.0486,0.0421,0.0413,0.0402,0.0388,0.0511,0.0511,0.051,0.0509,0,-0.0105,-0.0076,-0.0026,0.0036,0.0082,0.0136,0.0237,0.0285,0.0343,0.043,0.0469,0.054,0.0637,0.0648,0.0694,0.0632,0.0643,0.0649,0.0581,0.0563,0.0533,0.0522,0.0649,0.0649,0.065,0.065,0.0651,0,-0.0084,-0.0051,0.0016,0.0071,0.0126,0.0218,0.0287,0.0339,0.0383,0.05,0.0543,0.0673,0.0739,0.0802,0.0728,0.0713,0.0748,0.0661,0.0551,0.0575,0.0554,0.0542,0.053,0.0518,0.0517,0.0517,0.0516,0,-0.0048,-0.0023,-0.0006,0.0118,0.0212,0.0274,0.0379,0.0411,0.0472,0.055,0.0658,0.0719,0.0779,0.074,0.0726,0.0695,0.0645,0.0646,0.0724,0.0482,0.0456,0.0434,0.0426,0.0511,0.0511,0.0512,0.0512,0.0512,-0.0007,-0.0014,0.0042,0.0151,0.026,0.0338,0.0374,0.045,0.0516,0.0592,0.0658,0.0714,0.0643,0.0572,0.0578,0.0607,0.06,0.0564,0.0564,0.0565,0.0522,0.0498,0.0553,0.0554,0.0555,0.0555,0.0556,0,0.0045,0.0038,0.0102,0.0192,0.0308,0.0381,0.044,0.0437,0.0508,0.0582,0.064,0.0496,0.0467,0.0513,0.0496,0.0442,0.0406,0.0495,0.0448,0.0453,0.0458,0.0407,0.0409,0.0409,0.0409,0.0409,0,0,0.0093,0.0095,0.0079,0.0241,0.0339,0.0435,0.0463,0.0462,0.0485,0.049,0.0517,0.0421,0.0441,0.0356,0.0348,0.0432,0.0452,0.043,0.0542,0.0493,0.0498,0.0486,0.0413,0,0,0,0,0]},{"header":{"parameterUnit":"m.s-1","parameterCategory":2,"la1":30.2991,"la2":30.254,"lo1":-89.0895,"lo2":-89.0444,"dy":0.0017,"dx":0.0017,"nx":28,"ny":28,"refTime":"2025-12-25T09:00:00:Z","depth":"2","parameterNumber":3,"parameterNumberName":"V-component_of_CURRENTS"},"data":[0,0,0,0,0,0,0,0,0,0,0,0,0,0,0,0,0,0,0,0,0,0,0,0,0,0,0,0,0,0,0,0,0,0,0,0,0,0,0,0,0,0,0,0,0,0,0,0,0,0,0,0,0,0,0,0,0,0,0.0095,0.0094,0,0.0081,0.0081,0.0081,0.0086,0.0086,0.0086,0.0086,0.0,-0.0002,-0.0004,0,0,0,0,0,0,0,0,0,0,0,0,0,0.0145,0.0144,0.0095,0.0094,0.0094,0.0081,0.0081,0.0081,0.0086,0.0086,0.0086,0.0086,0.0001,-0.0002,-0.0004,0,0,0,0,0,0,0,0,0,0,0,0,0,0.0129,0.0144,0.0095,0.0093,0.0093,0.0081,0.0081,0.0081,0.0086,0.0086,0.0086,0.0086,0.0002,-0.0001,-0.0005,-0.0029,0,0,-0.0016,-0.0017,0,0,0,0,0,0,0,0,0.013,0.0127,0.0094,0.0093,0.0092,0.0083,0.0067,0.004,0.0086,0.0091,0.0086,0.0086,0.002,0.0015,0.0016,-0.0033,-0.0037,-0.0016,-0.0018,-0.002,-0.0021,0,0,0,0,0,0,0,0.0131,0.0128,0.0092,0.0093,0.0092,0.01,0.0098,0.0063,0.0055,0.009,0.009,0.0085,0.0019,0.002,0.0014,-0.0038,-0.0016,-0.0019,-0.0021,-0.0023,-0.0109,-0.0109,0,0,0,0,0,0,0.0126,0.0129,0.0092,0.0091,0.0109,0.0098,0.0096,0.0088,0.0057,0.0053,0.0085,0.0085,0.0026,0.0018,0.0011,-0.0035,-0.002,-0.0023,-0.0025,-0.0109,-0.0109,-0.0109,0,0,0,0,0,0,0.0127,0.0123,0.0093,0.0108,0.0104,0.0097,0.0088,0.0088,0.008,0.0053,0.0048,0.0077,0.0026,0.0016,-0.0029,-0.0038,-0.0025,-0.0028,-0.0108,-0.0109,-0.0109,-0.0118,0,0,0,0,0,0,0.0129,0.0123,0.0118,0.0107,0.0103,0.0082,0.0088,0.0087,0.0076,0.0076,0.0044,0.0037,0.0025,-0.0023,-0.0032,-0.0043,-0.0031,-0.0108,-0.0109,-0.0109,-0.0118,-0.0119,-0.012,0,0,0,0,0,0.0131,0.0121,0.0118,0.0114,0.0095,0.0082,0.0081,0.0078,0.0076,0.0072,0.0046,0.0038,-0.0031,-0.0027,-0.0037,-0.0049,-0.0108,-0.0108,-0.0109,-0.0117,-0.0119,-0.012,0,0,0,0,0,0,0.013,0.012,0.0117,0.0102,0.0091,0.0082,0.0075,0.0071,0.0051,0.0046,0.0023,0.0013,-0.0025,-0.0037,-0.0032,-0.0071,-0.0066,-0.0068,-0.0069,-0.007,-0.0071,-0.0049,-0.0034,0,0,0,0,0,0.0129,0.0125,0.0111,0.0097,0.0091,0.0081,0.0075,0.0071,0.0051,0.0043,0.002,-0.0004,-0.0033,-0.0052,-0.0076,-0.0109,-0.011,-0.0118,-0.0119,-0.0119,-0.0107,-0.013,-0.0133,-0.011,-0.011,-0.011,0,0,0.0124,0.0117,0.0114,0.0098,0.0089,0.0093,0.0078,0.0064,0.0063,0.0033,0.0016,-0.0016,-0.0043,-0.0073,-0.0091,-0.0087,-0.0125,-0.012,-0.0121,-0.0107,-0.0131,-0.0133,-0.0135,-0.011,-0.011,-0.011,0,0,0.0124,0.0104,0.0111,0.0109,0.0096,0.0088,0.0082,0.0067,0.0054,0.0026,0.0008,-0.0029,-0.007,-0.0087,-0.0103,-0.0125,-0.0131,-0.0132,-0.0123,-0.0147,-0.0149,-0.015,-0.0148,-0.015,-0.0131,-0.0131,-0.0131,0,0.0121,0.0129,0.0108,0.0121,0.0123,0.0088,0.0101,0.008,0.0052,0.004,0.0021,-0.0035,-0.0071,-0.01,-0.0109,-0.0128,-0.0133,-0.012,-0.0148,-0.015,-0.0152,-0.0149,-0.0151,-0.0132,-0.0132,-0.0132,-0.0132,0,0.0143,0.0148,0.0147,0.0158,0.0153,0.0151,0.0127,0.0109,0.008,0.0063,0.0018,-0.0034,-0.0059,-0.0085,-0.0111,-0.0138,-0.0134,-0.015,-0.0146,-0.0155,-0.0151,-0.0153,-0.0132,-0.0132,-0.0132,-0.0132,0,0,0.014,0.0162,0.0165,0.0182,0.0176,0.0174,0.0161,0.0142,0.0142,0.0084,0.0081,0.0001,-0.0029,-0.0048,-0.0089,-0.0121,-0.0152,-0.0143,-0.0144,-0.014,-0.0187,-0.012,-0.0115,-0.0179,-0.018,-0.018,-0.0178,0,0.0166,0.0206,0.0208,0.0238,0.0251,0.023,0.0229,0.0205,0.017,0.0153,0.0077,0.0053,-0.0015,-0.003,-0.0079,-0.0129,-0.0157,-0.015,-0.0178,-0.0178,-0.0118,-0.0115,-0.0142,-0.0136,-0.0179,-0.0179,-0.0179,0,0.0195,0.0218,0.0255,0.0287,0.0292,0.0299,0.0296,0.0298,0.0257,0.0232,0.0183,0.0131,0.0067,0.0015,-0.008,-0.0073,-0.0128,-0.0172,-0.0173,-0.0104,-0.0114,-0.0135,-0.0137,-0.0182,-0.0182,-0.0182,-0.0181,0,0.0212,0.0253,0.0282,0.0294,0.0317,0.0321,0.0332,0.0313,0.0319,0.0286,0.0283,0.02,0.0166,0.0074,-0.0032,-0.0057,-0.012,-0.0161,-0.0147,-0.0142,-0.0163,-0.0159,-0.0217,-0.0217,-0.0217,-0.0217,-0.0217,0,0.0244,0.027,0.0288,0.0307,0.0333,0.0351,0.0381,0.0373,0.0381,0.0397,0.0325,0.0315,0.0175,0.0113,0.0008,-0.0058,-0.0088,-0.013,-0.0136,-0.0165,-0.016,-0.0201,-0.02,-0.0217,-0.0217,-0.0217,-0.0217,0,0.0263,0.0276,0.0308,0.0335,0.0338,0.0361,0.0411,0.045,0.0446,0.0466,0.0459,0.0399,0.0329,0.0209,0.0084,0.0017,-0.0064,-0.008,-0.0085,-0.009,-0.0081,-0.008,-0.0061,-0.0058,-0.0056,-0.0055,-0.0053,0,0.0286,0.0299,0.0322,0.0328,0.0335,0.0376,0.0419,0.0461,0.0503,0.0514,0.0527,0.0477,0.0449,0.0323,0.0178,0.0055,0.0003,-0.0013,-0.0063,-0.0057,-0.0065,-0.0067,-0.0068,-0.0105,-0.0104,-0.0103,-0.0102,0,0.0321,0.0314,0.0344,0.0336,0.0366,0.0443,0.0499,0.054,0.06,0.0619,0.0644,0.0632,0.0512,0.0372,0.0233,0.0147,0.0006,0.0004,-0.0007,-0.0119,-0.0092,-0.0102,-0.0104,-0.0096,-0.0097,-0.0097,-0.0097,-0.0098,0.0332,0.0361,0.0363,0.0363,0.0395,0.0484,0.0564,0.063,0.0708,0.0741,0.0733,0.0686,0.0455,0.0262,0.0159,0.0087,0.0084,0.0012,0.0006,0.0,0.0016,0.0047,0.0073,0.0073,0.0073,0.0074,0.0074,0,0.0337,0.0368,0.0385,0.0412,0.0452,0.0465,0.0599,0.069,0.0777,0.0775,0.0795,0.0545,0.0404,0.0221,0.0117,0.0049,0.0005,0.003,-0.0052,-0.0057,-0.0061,-0.0053,-0.0012,-0.0013,-0.0013,-0.0013,0,0,0.0337,0.0377,0.0403,0.0448,0.046,0.0568,0.0654,0.076,0.0789,0.0793,0.0718,0.0587,0.0352,0.0191,0.0077,0.0068,0.0039,0.007,0.0147,0.0061,0.0058,-0.0065,-0.0054,0,0,0,0,0]}],[{"header":{"parameterUnit":"m.s-1","parameterCategory":2,"la1":30.2991,"la2":30.254,"lo1":-89.0895,"lo2":-89.0444,"dy":0.0017,"dx":0.0017,"nx":28,"ny":28,"refTime":"2025-12-25T09:00:00:Z","depth":"4","parameterNumber":2,"parameterNumberName":"U-component_of_CURRENTS"},"data":[0,0,0,0,0,0,0,0,0,0,0,0,0,0,0,0,0,0,0,0,0,0,0,0,0,0,0,0,0,0,0,0,0,0,0,0,0,0,0,0,0,0,0,0,0,0,0,0,0,0,0,0,0,0,0,0,0,0,-0.0493,-0.0493,0,-0.0505,-0.0506,-0.0506,-0.0523,-0.0523,-0.0523,-0.0523,-0.0555,-0.0556,-0.0557,0,0,0,0,0,0,0,0,0,0,0,0,0,-0.046,-0.0461,-0.0493,-0.0493,-0.0493,-0.0505,-0.0506,-0.0506,-0.0523,-0.0523,-0.0523,-0.0523,-0.0555,-0.0556,-0.0557,0,0,0,0,0,0,0,0,0,0,0,0,0,-0.0474,-0.0461,-0.0493,-0.0502,-0.0503,-0.0505,-0.0506,-0.0506,-0.0522,-0.0523,-0.0523,-0.0523,-0.0555,-0.0556,-0.0557,-0.0556,0,0,-0.056,-0.056,0,0,0,0,0,0,0,0,-0.0473,-0.0476,-0.0501,-0.0502,-0.0503,-0.0512,-0.0506,-0.0524,-0.0522,-0.0516,-0.0523,-0.0524,-0.0542,-0.0544,-0.0546,-0.0558,-0.0559,-0.056,-0.0561,-0.0561,-0.0561,0,0,0,0,0,0,0,-0.0472,-0.0475,-0.0498,-0.0501,-0.0502,-0.0498,-0.0501,-0.0509,-0.0528,-0.0516,-0.0518,-0.0518,-0.0543,-0.0545,-0.0547,-0.056,-0.056,-0.0561,-0.0561,-0.0562,-0.0625,-0.0626,0,0,0,0,0,0,-0.0471,-0.0474,-0.0498,-0.0499,-0.0488,-0.0498,-0.0501,-0.0509,-0.0527,-0.053,-0.0517,-0.0518,-0.0544,-0.0546,-0.0549,-0.0597,-0.0561,-0.0562,-0.0562,-0.0624,-0.0625,-0.0627,0,0,0,0,0,0,-0.047,-0.0473,-0.0498,-0.0486,-0.0488,-0.0499,-0.0507,-0.0509,-0.0519,-0.0528,-0.0531,-0.0526,-0.0544,-0.0547,-0.0562,-0.0596,-0.0562,-0.0563,-0.0623,-0.0625,-0.0626,-0.0662,0,0,0,0,0,0,-0.0469,-0.0473,-0.0479,-0.0486,-0.0489,-0.0506,-0.0507,-0.0509,-0.0518,-0.052,-0.0536,-0.0539,-0.0544,-0.0561,-0.0563,-0.0597,-0.0564,-0.0621,-0.0624,-0.0626,-0.0659,-0.0665,-0.0669,0,0,0,0,0,-0.0468,-0.0478,-0.048,-0.0482,-0.0498,-0.0506,-0.0507,-0.0515,-0.0518,-0.0525,-0.0535,-0.0539,-0.0576,-0.0562,-0.0565,-0.0599,-0.062,-0.0623,-0.0625,-0.0657,-0.0664,-0.0669,0,0,0,0,0,0,-0.0471,-0.0481,-0.0483,-0.0497,-0.0502,-0.0509,-0.052,-0.0519,-0.0531,-0.0537,-0.0542,-0.0546,-0.0574,-0.0578,-0.0562,-0.0625,-0.0604,-0.0607,-0.0627,-0.0633,-0.0638,-0.0672,-0.0565,0,0,0,0,0,-0.0472,-0.0479,-0.0489,-0.0498,-0.0508,-0.0513,-0.0518,-0.0522,-0.0531,-0.0538,-0.0546,-0.0564,-0.0585,-0.06,-0.0613,-0.0641,-0.0638,-0.0669,-0.0674,-0.0678,-0.0708,-0.0732,-0.0742,-0.0635,-0.0635,-0.0635,0,0,-0.0471,-0.048,-0.0482,-0.0497,-0.0508,-0.0519,-0.0519,-0.0532,-0.0541,-0.0539,-0.056,-0.0575,-0.0594,-0.0628,-0.0643,-0.0637,-0.0696,-0.0681,-0.0684,-0.0713,-0.0736,-0.0747,-0.0756,-0.0636,-0.0636,-0.0636,0,0,-0.0473,-0.0489,-0.0497,-0.0507,-0.0523,-0.0527,-0.0532,-0.0545,-0.0557,-0.0577,-0.0582,-0.0615,-0.0641,-0.0665,-0.0682,-0.072,-0.0715,-0.073,-0.0792,-0.0814,-0.0823,-0.0832,-0.0795,-0.08,-0.074,-0.074,-0.074,0,-0.0474,-0.0485,-0.0499,-0.0514,-0.0522,-0.0533,-0.0543,-0.0558,-0.0568,-0.0585,-0.0591,-0.0657,-0.0665,-0.0721,-0.0748,-0.0734,-0.0731,-0.0765,-0.0821,-0.0829,-0.0837,-0.0798,-0.0803,-0.0742,-0.0742,-0.0742,-0.0742,0,-0.0477,-0.0493,-0.0505,-0.0524,-0.0534,-0.0548,-0.0567,-0.0582,-0.0601,-0.0619,-0.0679,-0.0709,-0.0761,-0.0767,-0.0779,-0.0848,-0.0819,-0.0815,-0.0806,-0.0851,-0.0805,-0.081,-0.0745,-0.0744,-0.0744,-0.0743,0,0,-0.0468,-0.05,-0.0506,-0.0516,-0.0542,-0.0549,-0.0575,-0.0603,-0.0629,-0.0675,-0.073,-0.0791,-0.0834,-0.0859,-0.0881,-0.0915,-0.0949,-0.091,-0.091,-0.0872,-0.0968,-0.0843,-0.0835,-0.0965,-0.0967,-0.0969,-0.0896,0,-0.047,-0.0491,-0.0507,-0.0525,-0.054,-0.0562,-0.0584,-0.0611,-0.0651,-0.0707,-0.0776,-0.0843,-0.0862,-0.0914,-0.0955,-0.0953,-0.0973,-0.0967,-0.0934,-0.0932,-0.0816,-0.0841,-0.0976,-0.0899,-0.09,-0.0901,-0.0902,0,-0.0468,-0.0483,-0.0502,-0.0529,-0.054,-0.056,-0.0601,-0.063,-0.0708,-0.0755,-0.0852,-0.09,-0.0987,-0.1,-0.1037,-0.1039,-0.1028,-0.1014,-0.1011,-0.0897,-0.0818,-0.0858,-0.091,-0.0909,-0.0908,-0.0908,-0.0907,0,-0.0445,-0.048,-0.0492,-0.0503,-0.0536,-0.0562,-0.0598,-0.0655,-0.0692,-0.082,-0.0867,-0.0965,-0.1027,-0.1056,-0.1043,-0.1058,-0.1048,-0.1046,-0.0911,-0.0898,-0.1016,-0.1009,-0.108,-0.1081,-0.1081,-0.1081,-0.1081,0,-0.0436,-0.045,-0.0493,-0.0501,-0.0525,-0.057,-0.0624,-0.0671,-0.0766,-0.0805,-0.0923,-0.0946,-0.1055,-0.1054,-0.1049,-0.0976,-0.1047,-0.093,-0.0889,-0.1024,-0.1019,-0.1015,-0.1009,-0.1078,-0.1079,-0.1079,-0.108,0,-0.041,-0.0436,-0.0449,-0.0495,-0.0517,-0.0547,-0.0639,-0.0671,-0.0776,-0.0839,-0.0891,-0.0953,-0.0925,-0.0961,-0.0965,-0.095,-0.0907,-0.0861,-0.0963,-0.0926,-0.0737,-0.0733,-0.0712,-0.0708,-0.0704,-0.07,-0.0698,0,-0.0399,-0.0404,-0.0439,-0.0452,-0.0484,-0.0548,-0.0577,-0.0678,-0.0702,-0.079,-0.0788,-0.0815,-0.0835,-0.0721,-0.0773,-0.0739,-0.0738,-0.0739,-0.08,-0.0746,-0.0708,-0.0711,-0.0712,-0.0691,-0.069,-0.0689,-0.0688,0,-0.0372,-0.0385,-0.0393,-0.0418,-0.0449,-0.0473,-0.0528,-0.0537,-0.0628,-0.0724,-0.0671,-0.0676,-0.062,-0.0604,-0.0594,-0.0573,-0.0765,-0.0698,-0.0708,-0.0764,-0.0721,-0.0687,-0.0693,-0.0675,-0.0677,-0.0678,-0.0679,0,-0.0352,-0.0343,-0.0354,-0.0373,-0.04,-0.0385,-0.0423,-0.0425,-0.0458,-0.0553,-0.0501,-0.0519,-0.056,-0.0508,-0.0476,-0.0469,-0.0474,-0.0513,-0.0533,-0.0548,-0.0536,-0.0459,-0.0304,0,0,0,0,0,-0.0328,-0.0311,-0.0316,-0.0306,-0.0325,-0.0338,-0.0369,-0.0401,-0.047,-0.0404,-0.0465,-0.0401,-0.0379,-0.0364,-0.032,-0.0401,-0.048,-0.0353,-0.0536,-0.0599,-0.0615,-0.062,0,0,0,0,0,0,-0.0307,-0.0303,-0.0293,-0.0253,-0.024,-0.0235,-0.025,-0.0287,-0.0243,-0.0324,-0.0276,-0.0378,-0.0317,-0.0379,-0.0306,-0.0314,-0.0423,-0.0374,-0.0374,-0.059,-0.0605,-0.0617,-0.0628,0,0,0,0,0]},{"header":{"parameterUnit":"m.s-1","parameterCategory":2,"la1":30.2991,"la2":30.254,"lo1":-89.0895,"lo2":-89.0444,"dy":0.0017,"dx":0.0017,"nx":28,"ny":28,"refTime":"2025-12-25T09:00:00:Z","depth":"4","parameterNumber":3,"parameterNumberName":"V-component_of_CURRENTS"},"data":[0,0,0,0,0,0,0,0,0,0,0,0,0,0,0,0,0,0,0,0,0,0,0,0,0,0,0,0,0,0,0,0,0,0,0,0,0,0,0,0,0,0,0,0,0,0,0,0,0,0,0,0,0,0,0,0,0,0,0.0149,0.015,0,0.0164,0.0164,0.0164,0.0182,0.0182,0.0182,0.0183,0.0164,0.0163,0.0162,0,0,0,0,0,0,0,0,0,0,0,0,0,0.0148,0.0148,0.0149,0.015,0.015,0.0164,0.0164,0.0164,0.0182,0.0182,0.0183,0.0183,0.0164,0.0163,0.0162,0,0,0,0,0,0,0,0,0,0,0,0,0,0.0154,0.0148,0.0149,0.016,0.0162,0.0164,0.0164,0.0164,0.0182,0.0182,0.0183,0.0183,0.0164,0.0163,0.0162,0.0146,0,0,0.0159,0.0158,0,0,0,0,0,0,0,0,0.0153,0.0154,0.0159,0.016,0.0161,0.0172,0.0157,0.0157,0.0182,0.0174,0.0183,0.0183,0.0163,0.0162,0.0164,0.0145,0.0144,0.0158,0.0158,0.0157,0.0157,0,0,0,0,0,0,0,0.0153,0.0153,0.0155,0.0159,0.016,0.0168,0.017,0.0157,0.0165,0.0175,0.0176,0.0178,0.0164,0.0165,0.0164,0.0144,0.0159,0.0157,0.0157,0.0156,0.0104,0.0104,0,0,0,0,0,0,0.015,0.0153,0.0155,0.0155,0.0158,0.0168,0.0169,0.0168,0.0166,0.0167,0.0177,0.0178,0.0167,0.0165,0.0163,0.0134,0.0157,0.0156,0.0156,0.0105,0.0104,0.0104,0,0,0,0,0,0,0.015,0.015,0.0154,0.0155,0.0156,0.0167,0.0165,0.0168,0.017,0.0168,0.0168,0.0178,0.0167,0.0165,0.0151,0.0134,0.0156,0.0155,0.0106,0.0105,0.0104,0.0083,0,0,0,0,0,0,0.015,0.015,0.0149,0.0154,0.0156,0.0149,0.0165,0.0168,0.0171,0.0172,0.0168,0.0167,0.0167,0.0153,0.015,0.0133,0.0154,0.0107,0.0105,0.0104,0.0084,0.0081,0.0078,0,0,0,0,0,0.015,0.0143,0.0149,0.015,0.0154,0.0149,0.015,0.016,0.017,0.0165,0.0166,0.0168,0.0143,0.0151,0.0148,0.013,0.0107,0.0106,0.0104,0.0086,0.0082,0.0078,0,0,0,0,0,0,0.0142,0.0144,0.0151,0.0146,0.0146,0.0152,0.0153,0.0158,0.0156,0.0159,0.016,0.0158,0.0137,0.0137,0.0147,0.0112,0.0124,0.0122,0.0111,0.0107,0.0104,0.0113,0.0153,0,0,0,0,0,0.014,0.0137,0.0139,0.0137,0.0138,0.0145,0.0147,0.015,0.0149,0.015,0.0147,0.0141,0.0127,0.0122,0.011,0.0092,0.0111,0.0078,0.0075,0.0073,0.0077,0.0108,0.0109,0.0099,0.0099,0.0099,0,0,0.0136,0.0139,0.0137,0.0135,0.0141,0.0128,0.0147,0.0145,0.0129,0.0146,0.0127,0.0128,0.012,0.0099,0.009,0.0099,0.0081,0.0071,0.0069,0.0075,0.0107,0.0108,0.0109,0.0098,0.0098,0.0098,0,0,0.0122,0.0131,0.0121,0.0116,0.0118,0.0119,0.0116,0.0117,0.0115,0.0099,0.0104,0.0095,0.008,0.0069,0.0062,0.0034,0.0062,0.0033,0.0027,0.0057,0.0058,0.006,0.007,0.0072,0.0035,0.0035,0.0035,0,0.0117,0.0104,0.0117,0.0102,0.0093,0.0111,0.0089,0.0086,0.0081,0.0068,0.0089,0.0065,0.0061,0.003,0.0032,0.0025,0.0055,0.0041,0.0055,0.0057,0.0059,0.0069,0.0072,0.0033,0.0034,0.0034,0.0034,0,0.0091,0.008,0.0074,0.006,0.005,0.0038,0.0032,0.0021,0.0027,0.0022,0.0001,0.0011,0.0005,-0.0004,0.0013,0.0014,0.0033,0.0047,0.0068,0.0059,0.0069,0.0073,0.0032,0.0032,0.0033,0.0033,0,0,0.0075,0.0058,0.0054,0.0037,0.0025,0.0011,-0.0016,-0.0042,-0.0066,-0.0054,-0.008,-0.008,-0.0049,-0.0053,-0.0036,-0.0007,0.0031,0.0042,0.0044,0.0058,0.0102,0.004,0.0039,0.0069,0.007,0.0071,0.0097,0,0.0049,0.0015,0.0008,-0.0034,-0.0053,-0.0058,-0.0089,-0.011,-0.0116,-0.0135,-0.0118,-0.0123,-0.0076,-0.006,-0.0026,0.0022,0.0045,0.0022,0.0102,0.0104,0.0057,0.0042,0.0074,0.01,0.0101,0.0102,0.0102,0,0.0021,0.0001,-0.0041,-0.0084,-0.0095,-0.0121,-0.0168,-0.0192,-0.0214,-0.0211,-0.0198,-0.0169,-0.0129,-0.0082,0.0006,0.0004,0.0057,0.0091,0.0093,0.0049,0.005,0.0114,0.011,0.0109,0.0109,0.0108,0.0108,0,0.0006,-0.0038,-0.0072,-0.0086,-0.0129,-0.0158,-0.0183,-0.0218,-0.0245,-0.0243,-0.0244,-0.0196,-0.016,-0.0075,0.0009,0.0035,0.0091,0.0127,0.0104,0.01,0.016,0.0158,0.0178,0.0178,0.0178,0.0178,0.0178,0,-0.0021,-0.0053,-0.0082,-0.0103,-0.0159,-0.0179,-0.0237,-0.0255,-0.0282,-0.0313,-0.0264,-0.0266,-0.0142,-0.0098,-0.0011,0.0048,0.008,0.0098,0.0104,0.0146,0.0143,0.0162,0.016,0.0179,0.0178,0.0178,0.0178,0,-0.0039,-0.0052,-0.0097,-0.0145,-0.0165,-0.0204,-0.0267,-0.0307,-0.0313,-0.0346,-0.0331,-0.0296,-0.0222,-0.0148,-0.0036,0.0007,0.0071,0.0073,0.0082,0.0089,0.007,0.0067,0.0081,0.0079,0.0077,0.0076,0.0075,0,-0.0055,-0.0072,-0.0124,-0.0157,-0.0183,-0.024,-0.0283,-0.0315,-0.0343,-0.037,-0.038,-0.0337,-0.0301,-0.0196,-0.0119,-0.0006,0.0008,0.0034,0.0088,0.0057,0.0061,0.006,0.0059,0.0072,0.0072,0.0071,0.0071,0,-0.0087,-0.0094,-0.013,-0.0183,-0.0232,-0.0295,-0.0347,-0.036,-0.039,-0.0404,-0.039,-0.0348,-0.0308,-0.0208,-0.0152,-0.0067,0.0024,0.0018,0.0024,0.0076,0.0046,0.0052,0.0053,0.0065,0.0066,0.0066,0.0067,0,-0.0109,-0.0137,-0.0165,-0.0212,-0.0276,-0.0326,-0.0353,-0.0375,-0.0396,-0.0397,-0.0404,-0.0356,-0.0326,-0.0247,-0.0192,-0.0124,-0.0078,-0.0029,-0.0019,-0.0013,-0.0054,-0.0105,-0.0132,0,0,0,0,0,-0.0131,-0.0152,-0.0198,-0.0246,-0.0303,-0.033,-0.0389,-0.0404,-0.0419,-0.04,-0.0392,-0.0349,-0.0277,-0.0258,-0.019,-0.0221,-0.008,-0.0145,-0.002,0.0034,0.004,0.0002,0,0,0,0,0,0,-0.0153,-0.0186,-0.0195,-0.0254,-0.0283,-0.0347,-0.0375,-0.0387,-0.0366,-0.0369,-0.0319,-0.0325,-0.0244,-0.0289,-0.0178,-0.0169,-0.0083,-0.0117,-0.0116,0.003,0.0036,0.0041,0.0004,0,0,0,0,0]}]]